This is the latest recevied weather packets stored in our database for station/object KD7DVD-1. If no packets are shown the sender has not sent any weather packets the latest 10 day(s).
| Time | Temp. | Humidity | Pressure | Rain* | Wind** | Luminosity | Snow |
|---|---|---|---|---|---|---|---|
| 1787976017 | 17.22° C | 72% | 1015.3 hPa | 0 mm | - | - | - |
| 1787974217 | 17.78° C | 70% | 1015.2 hPa | 0 mm | - | - | - |
| 1787972416 | 18.33° C | 69% | 1015.1 hPa | 0 mm | - | - | - |
| 1787970616 | 19.44° C | 68% | 1014.9 hPa | 0 mm | - | - | - |
| 1787968816 | 20° C | 65% | 1014.8 hPa | 0 mm | - | - | - |
| 1787967016 | 21.11° C | 61% | 1014.8 hPa | 0 mm | - | - | - |
| 1787965216 | 23.33° C | 54% | 1014.9 hPa | 0 mm | - | - | - |
| 1787963417 | 22.22° C | 59% | 1015.1 hPa | 0 mm | - | - | - |
| 1787961623 | 23.33° C | 55% | 1015.4 hPa | 0 mm | - | - | - |
| 1787959816 | 23.89° C | 53% | 1015.5 hPa | 0 mm | - | - | - |
| 1787958016 | 23.33° C | 54% | 1015.7 hPa | 0 mm | - | - | - |
| 1787956216 | 22.22° C | 54% | 1016 hPa | 0 mm | - | - | - |
| 1787954418 | 22.22° C | 58% | 1016.2 hPa | 0 mm | - | - | - |
| 1787952616 | 20.56° C | 67% | 1016.6 hPa | 0 mm | - | - | - |
| 1787950816 | 20° C | 68% | 1017 hPa | 0 mm | - | - | - |
| 1787949016 | 20.56° C | 68% | 1017.1 hPa | 0 mm | - | - | - |
| 1787947215 | 20° C | 69% | 1017.1 hPa | 0 mm | - | - | - |
| 1787945417 | 19.44° C | 72% | 1017.4 hPa | 0 mm | - | - | - |
| 1787943618 | 18.89° C | 74% | 1017.6 hPa | 0 mm | - | - | - |
| 1787941817 | 18.89° C | 75% | 1017.7 hPa | 0 mm | - | - | - |
| 1787940017 | 17.78° C | 76% | 1017.9 hPa | 0 mm | - | - | - |
| 1787938217 | 18.33° C | 76% | 1018 hPa | 0 mm | - | - | - |
| 1787936417 | 17.22° C | 79% | 1017.9 hPa | 0 mm | - | - | - |
| 1787934618 | 17.22° C | 80% | 1018 hPa | 0 mm | - | - | - |
| 1787932817 | 17.22° C | 80% | 1018.2 hPa | 0 mm | - | - | - |
* Rain latest hour (hover to see other rain measurements)
** Current wind speed in m/s (hover to see current wind gust speed)